Time,TemperatureF,DewpointF,PressureIn,WindDirection,WindDirectionDegrees,WindSpeedMPH,WindSpeedGustMPH,Humidity,HourlyPrecipIn,Conditions,Clouds,dailyrainin,SoftwareType,DateUTC
2013-07-03 00:04:00,63.9,45.9,30.09,SE,135,0.0,0.0,52,0.00,,,0.00,meteohub,2013-07-03 05:04:00,
2013-07-03 00:09:00,63.7,46.2,30.08,SE,135,1.0,1.0,53,0.00,,,0.00,meteohub,2013-07-03 05:09:00,
2013-07-03 00:14:00,63.7,46.8,30.08,SW,225,1.0,1.0,54,0.00,,,0.00,meteohub,2013-07-03 05:14:00,
2013-07-03 00:19:00,64.4,47.5,30.09,SE,135,2.0,2.0,54,0.00,,,0.00,meteohub,2013-07-03 05:19:00,
2013-07-03 00:24:00,66.2,46.9,30.09,East,90,1.0,2.0,50,0.00,,,0.00,meteohub,2013-07-03 05:24:00,
2013-07-03 00:30:00,66.9,47.7,30.08,South,180,1.0,2.0,50,0.00,,,0.00,meteohub,2013-07-03 05:30:00,
2013-07-03 00:35:00,66.9,48.2,30.09,South,180,0.0,2.0,51,0.00,,,0.00,meteohub,2013-07-03 05:35:00,
2013-07-03 00:40:00,66.4,47.7,30.09,South,180,0.0,1.0,51,0.00,,,0.00,meteohub,2013-07-03 05:40:00,
2013-07-03 00:45:00,66.0,47.8,30.09,South,180,0.0,1.0,52,0.00,,,0.00,meteohub,2013-07-03 05:45:00,
2013-07-03 00:50:00,65.5,48.4,30.08,North,0,0.0,0.0,54,0.00,,,0.00,meteohub,2013-07-03 05:50:00,
2013-07-03 00:54:00,65.1,48.6,30.09,North,0,0.0,0.0,55,0.00,,,0.00,meteohub,2013-07-03 05:54:00,
2013-07-03 00:57:00,64.9,48.4,30.09,North,0,0.0,0.0,55,0.00,,,0.00,meteohub,2013-07-03 05:57:00,
2013-07-03 00:59:00,64.6,48.0,30.09,North,0,0.0,0.0,55,0.00,,,0.00,meteohub,2013-07-03 05:59:00,
2013-07-03 01:04:00,64.6,48.0,30.08,North,0,0.0,0.0,55,0.00,,,0.00,meteohub,2013-07-03 06:04:00,
2013-07-03 01:10:00,63.5,47.5,30.09,North,0,0.0,0.0,56,0.00,,,0.00,meteohub,2013-07-03 06:10:00,
2013-07-03 01:13:00,63.1,47.1,30.09,North,0,0.0,0.0,56,0.00,,,0.00,meteohub,2013-07-03 06:13:00,
2013-07-03 01:16:00,63.0,47.5,30.09,North,0,0.0,0.0,57,0.00,,,0.00,meteohub,2013-07-03 06:16:00,
2013-07-03 01:17:00,63.0,47.5,30.08,North,0,0.0,0.0,57,0.00,,,0.00,meteohub,2013-07-03 06:17:00,
2013-07-03 01:22:00,62.8,47.3,30.09,North,0,0.0,0.0,57,0.00,,,0.00,meteohub,2013-07-03 06:22:00,
2013-07-03 01:26:00,62.6,47.7,30.09,South,180,0.0,0.0,58,0.00,,,0.00,meteohub,2013-07-03 06:26:00,
2013-07-03 01:27:00,62.6,47.7,30.09,South,180,0.0,0.0,58,0.00,,,0.00,meteohub,2013-07-03 06:27:00,
2013-07-03 01:32:00,62.2,48.6,30.09,South,180,0.0,0.0,61,0.00,,,0.00,meteohub,2013-07-03 06:32:00,
2013-07-03 01:37:00,62.1,48.4,30.09,South,180,0.0,0.0,61,0.00,,,0.00,meteohub,2013-07-03 06:37:00,
2013-07-03 01:42:00,61.7,48.6,30.09,South,180,0.0,0.0,62,0.00,,,0.00,meteohub,2013-07-03 06:42:00,
2013-07-03 01:43:00,61.7,48.6,30.09,South,180,0.0,0.0,62,0.00,,,0.00,meteohub,2013-07-03 06:43:00,
2013-07-03 01:48:00,61.5,48.4,30.09,South,180,0.0,0.0,62,0.00,,,0.00,meteohub,2013-07-03 06:48:00,
2013-07-03 01:53:00,61.3,48.2,30.09,South,180,0.0,0.0,62,0.00,,,0.00,meteohub,2013-07-03 06:53:00,
2013-07-03 01:56:00,61.2,48.0,30.09,NE,45,1.0,0.0,62,0.00,,,0.00,meteohub,2013-07-03 06:56:00,
2013-07-03 02:02:00,60.8,48.2,30.09,NE,45,2.0,2.0,63,0.00,,,0.00,meteohub,2013-07-03 07:02:00,
2013-07-03 02:07:00,60.8,47.7,30.09,NE,45,0.0,2.0,62,0.00,,,0.00,meteohub,2013-07-03 07:07:00,
2013-07-03 02:12:00,61.0,47.8,30.09,SE,135,0.0,2.0,62,0.00,,,0.00,meteohub,2013-07-03 07:12:00,
2013-07-03 02:16:00,60.8,48.2,30.09,North,0,1.0,2.0,63,0.00,,,0.00,meteohub,2013-07-03 07:16:00,
2013-07-03 02:21:00,60.6,48.4,30.09,NW,315,0.0,2.0,64,0.00,,,0.00,meteohub,2013-07-03 07:21:00,
2013-07-03 02:26:00,60.6,48.7,30.09,East,90,2.0,2.0,65,0.00,,,0.00,meteohub,2013-07-03 07:26:00,
2013-07-03 02:31:00,60.6,48.4,30.09,NE,45,1.0,2.0,64,0.00,,,0.00,meteohub,2013-07-03 07:31:00,
2013-07-03 02:36:00,60.6,48.4,30.09,East,90,1.0,2.0,64,0.00,,,0.00,meteohub,2013-07-03 07:36:00,
2013-07-03 02:39:00,60.6,48.4,30.09,East,90,0.0,2.0,64,0.00,,,0.00,meteohub,2013-07-03 07:39:00,
2013-07-03 02:44:00,60.4,48.2,30.09,East,90,1.0,2.0,64,0.00,,,0.00,meteohub,2013-07-03 07:44:00,
2013-07-03 02:50:00,60.3,48.0,30.09,East,90,1.0,2.0,64,0.00,,,0.00,meteohub,2013-07-03 07:50:00,
2013-07-03 02:56:00,60.3,48.0,30.09,East,90,0.0,2.0,64,0.00,,,0.00,meteohub,2013-07-03 07:56:00,
2013-07-03 03:01:00,60.1,47.8,30.09,East,90,0.0,1.0,64,0.00,,,0.00,meteohub,2013-07-03 08:01:00,
2013-07-03 03:02:00,60.1,47.8,30.08,East,90,0.0,1.0,64,0.00,,,0.00,meteohub,2013-07-03 08:02:00,
2013-07-03 03:06:00,60.1,47.8,30.09,East,90,0.0,1.0,64,0.00,,,0.00,meteohub,2013-07-03 08:06:00,
2013-07-03 03:09:00,59.7,48.0,30.09,East,90,0.0,1.0,65,0.00,,,0.00,meteohub,2013-07-03 08:09:00,
2013-07-03 03:14:00,59.5,48.2,30.08,East,90,0.0,0.0,66,0.00,,,0.00,meteohub,2013-07-03 08:14:00,
2013-07-03 03:18:00,59.5,48.2,30.08,East,90,0.0,0.0,66,0.00,,,0.00,meteohub,2013-07-03 08:18:00,
2013-07-03 03:23:00,59.5,48.2,30.08,East,90,0.0,0.0,66,0.00,,,0.00,meteohub,2013-07-03 08:23:00,
2013-07-03 03:28:00,59.5,48.2,30.08,East,90,0.0,0.0,66,0.00,,,0.00,meteohub,2013-07-03 08:28:00,
2013-07-03 03:34:00,59.5,48.6,30.08,East,90,0.0,0.0,67,0.00,,,0.00,meteohub,2013-07-03 08:34:00,
2013-07-03 03:39:00,59.4,49.1,30.08,East,90,0.0,0.0,69,0.00,,,0.00,meteohub,2013-07-03 08:39:00,
2013-07-03 03:40:00,59.4,49.1,30.08,East,90,1.0,0.0,69,0.00,,,0.00,meteohub,2013-07-03 08:40:00,
2013-07-03 03:45:00,59.5,49.8,30.08,East,90,2.0,0.0,70,0.00,,,0.00,meteohub,2013-07-03 08:45:00,
2013-07-03 03:50:00,59.7,49.5,30.07,West,270,0.0,2.0,69,0.00,,,0.00,meteohub,2013-07-03 08:50:00,
2013-07-03 03:54:00,59.7,49.1,30.07,West,270,0.0,2.0,68,0.00,,,0.00,meteohub,2013-07-03 08:54:00,
2013-07-03 03:55:00,59.7,49.1,30.07,West,270,1.0,2.0,68,0.00,,,0.00,meteohub,2013-07-03 08:55:00,
2013-07-03 04:00:00,59.5,49.3,30.08,West,270,0.0,2.0,69,0.00,,,0.00,meteohub,2013-07-03 09:00:00,
2013-07-03 04:06:00,59.4,49.6,30.08,East,90,0.0,1.0,70,0.00,,,0.00,meteohub,2013-07-03 09:06:00,
2013-07-03 04:11:00,59.4,50.4,30.07,NE,45,2.0,2.0,72,0.00,,,0.00,meteohub,2013-07-03 09:11:00,
2013-07-03 04:16:00,59.4,50.0,30.07,West,270,1.0,2.0,71,0.00,,,0.00,meteohub,2013-07-03 09:16:00,
2013-07-03 04:21:00,59.5,49.8,30.07,SE,135,1.0,2.0,70,0.00,,,0.00,meteohub,2013-07-03 09:21:00,
2013-07-03 04:26:00,59.4,50.4,30.07,NE,45,1.0,2.0,72,0.00,,,0.00,meteohub,2013-07-03 09:26:00,
2013-07-03 04:31:00,59.4,50.0,30.08,SW,225,0.0,2.0,71,0.00,,,0.00,meteohub,2013-07-03 09:31:00,
2013-07-03 04:36:00,59.2,50.2,30.08,SE,135,1.0,2.0,72,0.00,,,0.00,meteohub,2013-07-03 09:36:00,
2013-07-03 04:42:00,59.4,50.7,30.07,NE,45,1.0,2.0,73,0.00,,,0.00,meteohub,2013-07-03 09:42:00,
2013-07-03 04:47:00,59.4,50.4,30.07,NE,45,0.0,2.0,72,0.00,,,0.00,meteohub,2013-07-03 09:47:00,
2013-07-03 04:49:00,59.4,50.4,30.08,NE,45,0.0,2.0,72,0.00,,,0.00,meteohub,2013-07-03 09:49:00,
2013-07-03 04:51:00,59.4,50.4,30.08,NE,45,0.0,2.0,72,0.00,,,0.00,meteohub,2013-07-03 09:51:00,
2013-07-03 04:56:00,59.0,50.0,30.08,NE,45,0.0,2.0,72,0.00,,,0.00,meteohub,2013-07-03 09:56:00,
2013-07-03 05:01:00,58.8,50.2,30.08,NE,45,0.0,0.0,73,0.00,,,0.00,meteohub,2013-07-03 10:01:00,
2013-07-03 05:05:00,58.8,50.2,30.08,NE,45,0.0,0.0,73,0.00,,,0.00,meteohub,2013-07-03 10:05:00,
2013-07-03 05:11:00,58.5,50.2,30.07,NE,45,0.0,0.0,74,0.00,,,0.00,meteohub,2013-07-03 10:11:00,
2013-07-03 05:16:00,58.5,50.2,30.07,NE,45,0.0,0.0,74,0.00,,,0.00,meteohub,2013-07-03 10:16:00,
2013-07-03 05:21:00,58.5,50.2,30.07,NE,45,0.0,0.0,74,0.00,,,0.00,meteohub,2013-07-03 10:21:00,
2013-07-03 05:26:00,58.3,50.7,30.07,NE,45,1.0,0.0,76,0.00,,,0.00,meteohub,2013-07-03 10:26:00,
2013-07-03 05:31:00,58.1,50.2,30.07,NE,45,0.0,2.0,75,0.00,,,0.00,meteohub,2013-07-03 10:31:00,
2013-07-03 05:36:00,58.1,50.2,30.07,NE,45,0.0,2.0,75,0.00,,,0.00,meteohub,2013-07-03 10:36:00,
2013-07-03 05:41:00,57.9,50.0,30.07,NE,45,0.0,1.0,75,0.00,,,0.00,meteohub,2013-07-03 10:41:00,
2013-07-03 05:47:00,57.7,50.2,30.07,NE,45,0.0,0.0,76,0.00,,,0.00,meteohub,2013-07-03 10:47:00,
2013-07-03 05:52:00,57.7,50.2,30.07,NE,45,1.0,1.0,76,0.00,,,0.00,meteohub,2013-07-03 10:52:00,
2013-07-03 05:54:00,57.7,50.2,30.07,NE,45,0.0,1.0,76,0.00,,,0.00,meteohub,2013-07-03 10:54:00,
2013-07-03 05:56:00,57.7,50.2,30.07,NE,45,0.0,1.0,76,0.00,,,0.00,meteohub,2013-07-03 10:56:00,
2013-07-03 05:58:00,57.7,50.2,30.07,NE,45,0.0,1.0,76,0.00,,,0.00,meteohub,2013-07-03 10:58:00,
2013-07-03 06:03:00,57.6,50.0,30.07,NE,45,1.0,1.0,76,0.00,,,0.00,meteohub,2013-07-03 11:03:00,
2013-07-03 06:08:00,57.6,50.7,30.07,NE,45,0.0,2.0,78,0.00,,,0.00,meteohub,2013-07-03 11:08:00,
2013-07-03 06:09:00,57.7,51.6,30.07,NE,45,1.0,2.0,80,0.00,,,0.00,meteohub,2013-07-03 11:09:00,
2013-07-03 06:14:00,57.7,52.0,30.07,NW,315,2.0,2.0,81,0.00,,,0.00,meteohub,2013-07-03 11:14:00,
2013-07-03 06:20:00,57.9,51.1,30.07,East,90,2.0,2.0,78,0.00,,,0.00,meteohub,2013-07-03 11:20:00,
2013-07-03 06:23:00,57.7,50.5,30.07,East,90,0.0,2.0,77,0.00,,,0.00,meteohub,2013-07-03 11:23:00,
2013-07-03 06:25:00,57.6,50.4,30.07,East,90,0.0,2.0,77,0.00,,,0.00,meteohub,2013-07-03 11:25:00,
2013-07-03 06:30:00,57.6,50.7,30.07,East,90,0.0,2.0,78,0.00,,,0.00,meteohub,2013-07-03 11:30:00,
2013-07-03 06:36:00,57.6,51.4,30.07,East,90,0.0,1.0,80,0.00,,,0.00,meteohub,2013-07-03 11:36:00,
2013-07-03 06:41:00,57.6,50.7,30.07,West,270,1.0,1.0,78,0.00,,,0.00,meteohub,2013-07-03 11:41:00,
2013-07-03 06:45:00,57.4,50.5,30.07,West,270,2.0,2.0,78,0.00,,,0.00,meteohub,2013-07-03 11:45:00,
2013-07-03 06:51:00,57.2,50.4,30.07,West,270,0.0,2.0,78,0.00,,,0.00,meteohub,2013-07-03 11:51:00,
2013-07-03 06:56:00,57.2,50.7,30.08,West,270,0.0,2.0,79,0.00,,,0.00,meteohub,2013-07-03 11:56:00,
2013-07-03 06:59:00,57.2,50.7,30.08,West,270,0.0,2.0,79,0.00,,,0.00,meteohub,2013-07-03 11:59:00,
2013-07-03 07:02:00,57.2,50.7,30.07,West,270,0.0,2.0,79,0.00,,,0.00,meteohub,2013-07-03 12:02:00,
2013-07-03 07:07:00,57.4,51.3,30.07,West,270,0.0,0.0,80,0.00,,,0.00,meteohub,2013-07-03 12:07:00,
2013-07-03 07:12:00,57.6,51.4,30.07,West,270,0.0,0.0,80,0.00,,,0.00,meteohub,2013-07-03 12:12:00,
2013-07-03 07:14:00,57.7,51.6,30.07,West,270,0.0,0.0,80,0.00,,,0.00,meteohub,2013-07-03 12:14:00,
2013-07-03 07:17:00,57.9,51.8,30.07,West,270,0.0,0.0,80,0.00,,,0.00,meteohub,2013-07-03 12:17:00,
2013-07-03 07:20:00,58.1,52.3,30.07,East,90,1.0,2.0,81,0.00,,,0.00,meteohub,2013-07-03 12:20:00,
2013-07-03 07:25:00,58.6,53.2,30.07,East,90,2.0,2.0,82,0.00,,,0.00,meteohub,2013-07-03 12:25:00,
2013-07-03 07:31:00,59.2,54.0,30.07,East,90,0.0,2.0,83,0.00,,,0.00,meteohub,2013-07-03 12:31:00,
2013-07-03 07:36:00,59.5,53.8,30.07,East,90,0.0,2.0,81,0.00,,,0.00,meteohub,2013-07-03 12:36:00,
2013-07-03 07:41:00,60.1,54.0,30.08,East,90,0.0,2.0,80,0.00,,,0.00,meteohub,2013-07-03 12:41:00,
2013-07-03 07:46:00,60.6,54.5,30.08,West,270,1.0,1.0,80,0.00,,,0.00,meteohub,2013-07-03 12:46:00,
2013-07-03 07:51:00,61.5,54.7,30.09,West,270,0.0,1.0,78,0.00,,,0.00,meteohub,2013-07-03 12:51:00,
2013-07-03 07:57:00,62.6,54.5,30.09,North,0,0.0,2.0,75,0.00,,,0.00,meteohub,2013-07-03 12:57:00,
2013-07-03 08:02:00,63.5,55.0,30.09,North,0,0.0,2.0,74,0.00,,,0.00,meteohub,2013-07-03 13:02:00,
2013-07-03 08:07:00,65.8,57.0,30.09,West,270,0.0,2.0,73,0.00,,,0.00,meteohub,2013-07-03 13:07:00,
2013-07-03 08:12:00,67.3,57.2,30.09,West,270,0.0,0.0,70,0.00,,,0.00,meteohub,2013-07-03 13:12:00,
2013-07-03 08:17:00,68.0,57.0,30.09,South,180,0.0,1.0,68,0.00,,,0.00,meteohub,2013-07-03 13:17:00,
2013-07-03 08:22:00,68.7,57.4,30.09,West,270,2.0,2.0,67,0.00,,,0.00,meteohub,2013-07-03 13:22:00,
2013-07-03 08:25:00,69.3,57.9,30.09,West,270,2.0,2.0,67,0.00,,,0.00,meteohub,2013-07-03 13:25:00,
2013-07-03 08:30:00,70.2,57.4,30.09,NW,315,1.0,2.0,64,0.00,,,0.00,meteohub,2013-07-03 13:30:00,
2013-07-03 08:35:00,71.2,57.6,30.09,West,270,4.0,4.0,62,0.00,,,0.00,meteohub,2013-07-03 13:35:00,
2013-07-03 08:37:00,71.6,56.5,30.09,West,270,2.0,3.0,59,0.00,,,0.00,meteohub,2013-07-03 13:37:00,
2013-07-03 08:42:00,72.5,57.4,30.09,West,270,1.0,4.0,59,0.00,,,0.00,meteohub,2013-07-03 13:42:00,
2013-07-03 08:47:00,73.4,56.3,30.09,SW,225,2.0,4.0,55,0.00,,,0.00,meteohub,2013-07-03 13:47:00,
2013-07-03 08:53:00,74.1,55.9,30.09,West,270,2.0,4.0,53,0.00,,,0.00,meteohub,2013-07-03 13:53:00,
2013-07-03 08:58:00,74.8,55.6,30.10,NW,315,4.0,4.0,51,0.00,,,0.00,meteohub,2013-07-03 13:58:00,
2013-07-03 09:03:00,75.7,55.2,30.09,West,270,2.0,4.0,49,0.00,,,0.00,meteohub,2013-07-03 14:03:00,
2013-07-03 09:06:00,76.8,55.0,30.09,West,270,2.0,4.0,47,0.00,,,0.00,meteohub,2013-07-03 14:06:00,
2013-07-03 09:10:00,77.7,54.7,30.10,NW,315,2.0,4.0,45,0.00,,,0.00,meteohub,2013-07-03 14:10:00,
2013-07-03 09:15:00,78.6,55.6,30.09,NW,315,2.0,4.0,45,0.00,,,0.00,meteohub,2013-07-03 14:15:00,
2013-07-03 09:17:00,78.8,55.0,30.09,SW,225,2.0,4.0,44,0.00,,,0.00,meteohub,2013-07-03 14:17:00,
2013-07-03 09:22:00,79.7,54.5,30.10,North,0,2.0,3.0,42,0.00,,,0.00,meteohub,2013-07-03 14:22:00,
2013-07-03 09:27:00,80.4,54.5,30.09,SE,135,1.0,3.0,41,0.00,,,0.00,meteohub,2013-07-03 14:27:00,
2013-07-03 09:30:00,81.0,54.3,30.09,West,270,2.0,3.0,40,0.00,,,0.00,meteohub,2013-07-03 14:30:00,
2013-07-03 09:35:00,81.9,55.9,30.10,West,270,2.0,3.0,41,0.00,,,0.00,meteohub,2013-07-03 14:35:00,
2013-07-03 09:38:00,82.4,55.6,30.09,North,0,1.0,3.0,40,0.00,,,0.00,meteohub,2013-07-03 14:38:00,
2013-07-03 09:41:00,83.1,56.3,30.09,SE,135,2.0,3.0,40,0.00,,,0.00,meteohub,2013-07-03 14:41:00,
2013-07-03 09:46:00,83.7,56.1,30.09,WSW,248,3.0,3.0,39,0.00,,,0.00,meteohub,2013-07-03 14:46:00,
2013-07-03 09:51:00,84.9,57.9,30.10,NNW,338,2.0,3.0,40,0.00,,,0.00,meteohub,2013-07-03 14:51:00,
2013-07-03 09:52:00,85.3,58.3,30.09,North,0,2.0,3.0,40,0.00,,,0.00,meteohub,2013-07-03 14:52:00,
2013-07-03 09:57:00,86.7,56.7,30.09,NE,45,1.0,3.0,36,0.00,,,0.00,meteohub,2013-07-03 14:57:00,
2013-07-03 09:59:00,87.3,57.0,30.09,SW,225,2.0,3.0,36,0.00,,,0.00,meteohub,2013-07-03 14:59:00,
2013-07-03 10:03:00,87.8,55.9,30.10,North,0,2.0,3.0,34,0.00,,,0.00,meteohub,2013-07-03 15:03:00,
2013-07-03 10:04:00,88.0,56.8,30.10,NE,45,2.0,3.0,35,0.00,,,0.00,meteohub,2013-07-03 15:04:00,
2013-07-03 10:09:00,86.7,56.7,30.09,NW,315,2.0,2.0,36,0.00,,,0.00,meteohub,2013-07-03 15:09:00,
2013-07-03 10:14:00,87.8,56.7,30.09,NW,315,2.0,4.0,35,0.00,,,0.00,meteohub,2013-07-03 15:14:00,
2013-07-03 10:16:00,88.7,56.7,30.09,NW,315,2.0,4.0,34,0.00,,,0.00,meteohub,2013-07-03 15:16:00,
2013-07-03 10:21:00,90.0,56.1,30.09,SE,135,3.0,4.0,32,0.00,,,0.00,meteohub,2013-07-03 15:21:00,
2013-07-03 10:26:00,88.2,56.3,30.09,East,90,4.0,4.0,34,0.00,,,0.00,meteohub,2013-07-03 15:26:00,
2013-07-03 10:28:00,88.0,56.1,30.10,NW,315,2.0,3.0,34,0.00,,,0.00,meteohub,2013-07-03 15:28:00,
2013-07-03 10:34:00,88.7,55.0,30.09,NW,315,2.0,4.0,32,0.00,,,0.00,meteohub,2013-07-03 15:34:00,
2013-07-03 10:39:00,91.0,56.1,30.09,East,90,3.0,4.0,31,0.00,,,0.00,meteohub,2013-07-03 15:39:00,
2013-07-03 10:40:00,91.0,54.3,30.09,SE,135,2.0,4.0,29,0.00,,,0.00,meteohub,2013-07-03 15:40:00,
2013-07-03 10:45:00,91.0,51.4,30.09,East,90,2.0,4.0,26,0.00,,,0.00,meteohub,2013-07-03 15:45:00,
2013-07-03 10:51:00,92.1,55.2,30.09,WNW,293,2.0,4.0,29,0.00,,,0.00,meteohub,2013-07-03 15:51:00,
2013-07-03 10:52:00,92.8,55.9,30.09,East,90,2.0,4.0,29,0.00,,,0.00,meteohub,2013-07-03 15:52:00,
2013-07-03 10:57:00,92.5,53.6,30.09,NE,45,4.0,4.0,27,0.00,,,0.00,meteohub,2013-07-03 15:57:00,
2013-07-03 11:02:00,91.8,53.1,30.09,East,90,6.0,6.0,27,0.00,,,0.00,meteohub,2013-07-03 16:02:00,
2013-07-03 11:07:00,90.7,50.0,30.09,NW,315,2.0,6.0,25,0.00,,,0.00,meteohub,2013-07-03 16:07:00,
2013-07-03 11:13:00,92.7,53.8,30.09,NE,45,2.0,6.0,27,0.00,,,0.00,meteohub,2013-07-03 16:13:00,
2013-07-03 11:18:00,94.1,54.0,30.09,West,270,2.0,6.0,26,0.00,,,0.00,meteohub,2013-07-03 16:18:00,
2013-07-03 11:23:00,95.7,53.2,30.09,WSW,248,2.0,5.0,24,0.00,,,0.00,meteohub,2013-07-03 16:23:00,
2013-07-03 11:28:00,94.6,52.2,30.09,South,180,2.0,4.0,24,0.00,,,0.00,meteohub,2013-07-03 16:28:00,
2013-07-03 11:33:00,93.7,52.5,30.09,West,270,2.0,4.0,25,0.00,,,0.00,meteohub,2013-07-03 16:33:00,
2013-07-03 11:38:00,95.9,53.2,30.08,East,90,2.0,4.0,24,0.00,,,0.00,meteohub,2013-07-03 16:38:00,
2013-07-03 11:44:00,94.6,53.4,30.08,NE,45,2.0,4.0,25,0.00,,,0.00,meteohub,2013-07-03 16:44:00,
2013-07-03 11:49:00,96.3,53.6,30.08,SW,225,2.0,4.0,24,0.00,,,0.00,meteohub,2013-07-03 16:49:00,
2013-07-03 11:54:00,97.2,52.0,30.08,NNW,338,2.0,4.0,22,0.00,,,0.00,meteohub,2013-07-03 16:54:00,
2013-07-03 11:59:00,98.1,54.0,30.08,North,0,2.0,5.0,23,0.00,,,0.00,meteohub,2013-07-03 16:59:00,
2013-07-03 12:05:00,98.2,52.9,30.08,ESE,113,2.0,5.0,22,0.00,,,0.00,meteohub,2013-07-03 17:05:00,
2013-07-03 12:10:00,97.3,53.4,30.07,ENE,68,2.0,5.0,23,0.00,,,0.00,meteohub,2013-07-03 17:10:00,
2013-07-03 12:15:00,96.3,52.5,30.07,NW,315,2.0,5.0,23,0.00,,,0.00,meteohub,2013-07-03 17:15:00,
2013-07-03 12:20:00,96.8,52.9,30.07,South,180,3.0,5.0,23,0.00,,,0.00,meteohub,2013-07-03 17:20:00,
2013-07-03 12:25:00,97.7,52.3,30.07,North,0,4.0,5.0,22,0.00,,,0.00,meteohub,2013-07-03 17:25:00,
2013-07-03 12:31:00,98.2,52.9,30.07,South,180,2.0,4.0,22,0.00,,,0.00,meteohub,2013-07-03 17:31:00,
2013-07-03 12:36:00,98.1,54.0,30.07,SW,225,2.0,4.0,23,0.00,,,0.00,meteohub,2013-07-03 17:36:00,
2013-07-03 12:41:00,97.0,53.1,30.07,NE,45,2.0,4.0,23,0.00,,,0.00,meteohub,2013-07-03 17:41:00,
2013-07-03 12:46:00,98.4,53.1,30.06,SW,225,4.0,4.0,22,0.00,,,0.00,meteohub,2013-07-03 17:46:00,
2013-07-03 12:52:00,99.5,50.0,30.06,NW,315,4.0,4.0,19,0.00,,,0.00,meteohub,2013-07-03 17:52:00,
2013-07-03 12:57:00,100.0,48.9,30.06,WNW,293,8.0,8.0,18,0.00,,,0.00,meteohub,2013-07-03 17:57:00,
2013-07-03 13:02:00,100.4,44.4,30.06,SW,225,2.0,8.0,15,0.00,,,0.00,meteohub,2013-07-03 18:02:00,
2013-07-03 13:07:00,100.4,44.4,30.05,SW,225,2.0,8.0,15,0.00,,,0.00,meteohub,2013-07-03 18:07:00,
2013-07-03 13:12:00,98.4,46.0,30.05,NW,315,2.0,8.0,17,0.00,,,0.00,meteohub,2013-07-03 18:12:00,
2013-07-03 13:17:00,98.8,47.8,30.05,ESE,113,4.0,5.0,18,0.00,,,0.00,meteohub,2013-07-03 18:17:00,
2013-07-03 13:22:00,99.0,45.0,30.05,South,180,5.0,5.0,16,0.00,,,0.00,meteohub,2013-07-03 18:22:00,
2013-07-03 13:28:00,99.3,41.7,30.05,WNW,293,5.0,5.0,14,0.00,,,0.00,meteohub,2013-07-03 18:28:00,
2013-07-03 13:33:00,100.4,44.4,30.05,West,270,4.0,8.0,15,0.00,,,0.00,meteohub,2013-07-03 18:33:00,
2013-07-03 13:38:00,100.0,38.3,30.04,East,90,4.0,8.0,12,0.00,,,0.00,meteohub,2013-07-03 18:38:00,
2013-07-03 13:43:00,98.2,46.0,30.04,West,270,2.0,8.0,17,0.00,,,0.00,meteohub,2013-07-03 18:43:00,
2013-07-03 13:48:00,100.4,44.4,30.04,West,270,3.0,4.0,15,0.00,,,0.00,meteohub,2013-07-03 18:48:00,
2013-07-03 13:53:00,102.0,45.7,30.04,North,0,2.0,4.0,15,0.00,,,0.00,meteohub,2013-07-03 18:53:00,
2013-07-03 13:58:00,101.8,45.5,30.04,NW,315,2.0,5.0,15,0.00,,,0.00,meteohub,2013-07-03 18:58:00,
2013-07-03 14:04:00,102.0,45.7,30.04,West,270,5.0,6.0,15,0.00,,,0.00,meteohub,2013-07-03 19:04:00,
2013-07-03 14:09:00,103.6,45.1,30.03,NW,315,2.0,6.0,14,0.00,,,0.00,meteohub,2013-07-03 19:09:00,
2013-07-03 14:14:00,100.6,44.6,30.03,West,270,3.0,6.0,15,0.00,,,0.00,meteohub,2013-07-03 19:14:00,
2013-07-03 14:19:00,99.5,41.9,30.03,NW,315,4.0,5.0,14,0.00,,,0.00,meteohub,2013-07-03 19:19:00,
2013-07-03 14:24:00,99.3,39.7,30.02,South,180,3.0,6.0,13,0.00,,,0.00,meteohub,2013-07-03 19:24:00,
2013-07-03 14:30:00,98.6,37.2,30.03,NW,315,5.0,6.0,12,0.00,,,0.00,meteohub,2013-07-03 19:30:00,
2013-07-03 14:35:00,101.3,45.1,30.03,NE,45,7.0,8.0,15,0.00,,,0.00,meteohub,2013-07-03 19:35:00,
2013-07-03 14:40:00,101.5,45.3,30.02,NE,45,4.0,8.0,15,0.00,,,0.00,meteohub,2013-07-03 19:40:00,
2013-07-03 14:45:00,97.7,40.5,30.02,NW,315,2.0,8.0,14,0.00,,,0.00,meteohub,2013-07-03 19:45:00,
2013-07-03 14:50:00,100.6,44.6,30.02,SW,225,4.0,7.0,15,0.00,,,0.00,meteohub,2013-07-03 19:50:00,
2013-07-03 14:55:00,101.8,45.5,30.02,North,0,3.0,5.0,15,0.00,,,0.00,meteohub,2013-07-03 19:55:00,
2013-07-03 15:00:00,102.4,44.1,30.02,SW,225,3.0,5.0,14,0.00,,,0.00,meteohub,2013-07-03 20:00:00,
2013-07-03 15:05:00,102.4,44.1,30.02,SW,225,3.0,5.0,14,0.00,,,0.00,meteohub,2013-07-03 20:05:00,
2013-07-03 15:12:00,99.5,39.9,30.01,SW,225,4.0,5.0,13,0.00,,,0.00,meteohub,2013-07-03 20:12:00,
2013-07-03 15:17:00,99.0,37.6,30.01,NW,315,3.0,5.0,12,0.00,,,0.00,meteohub,2013-07-03 20:17:00,
2013-07-03 15:22:00,97.9,42.4,30.01,North,0,8.0,8.0,15,0.00,,,0.00,meteohub,2013-07-03 20:22:00,
2013-07-03 15:27:00,100.2,42.4,30.01,West,270,3.0,8.0,14,0.00,,,0.00,meteohub,2013-07-03 20:27:00,
2013-07-03 15:32:00,102.2,44.1,30.01,West,270,3.0,8.0,14,0.00,,,0.00,meteohub,2013-07-03 20:32:00,
2013-07-03 15:37:00,102.6,44.2,30.01,SE,135,3.0,8.0,14,0.00,,,0.00,meteohub,2013-07-03 20:37:00,
2013-07-03 15:42:00,104.5,43.9,30.01,West,270,3.0,5.0,13,0.00,,,0.00,meteohub,2013-07-03 20:42:00,
2013-07-03 15:47:00,105.3,44.4,30.00,NNE,23,5.0,5.0,13,0.00,,,0.00,meteohub,2013-07-03 20:47:00,
2013-07-03 15:53:00,105.8,42.8,30.00,NE,45,4.0,8.0,12,0.00,,,0.00,meteohub,2013-07-03 20:53:00,
2013-07-03 15:58:00,105.3,44.4,30.00,West,270,3.0,9.0,13,0.00,,,0.00,meteohub,2013-07-03 20:58:00,
2013-07-03 16:03:00,105.4,44.6,30.00,North,0,4.0,9.0,13,0.00,,,0.00,meteohub,2013-07-03 21:03:00,
2013-07-03 16:08:00,105.8,42.8,30.00,North,0,5.0,6.0,12,0.00,,,0.00,meteohub,2013-07-03 21:08:00,
2013-07-03 16:13:00,105.4,44.6,30.00,West,270,3.0,6.0,13,0.00,,,0.00,meteohub,2013-07-03 21:13:00,
2013-07-03 16:18:00,104.7,44.1,30.00,West,270,2.0,6.0,13,0.00,,,0.00,meteohub,2013-07-03 21:18:00,
2013-07-03 16:24:00,105.4,44.6,29.99,NW,315,3.0,6.0,13,0.00,,,0.00,meteohub,2013-07-03 21:24:00,
2013-07-03 16:29:00,105.6,44.8,29.99,SSE,158,4.0,5.0,13,0.00,,,0.00,meteohub,2013-07-03 21:29:00,
2013-07-03 16:34:00,103.3,44.8,29.99,SE,135,3.0,4.0,14,0.00,,,0.00,meteohub,2013-07-03 21:34:00,
2013-07-03 16:39:00,103.8,45.3,29.99,SSW,203,2.0,4.0,14,0.00,,,0.00,meteohub,2013-07-03 21:39:00,
2013-07-03 16:44:00,104.7,44.1,29.99,NE,45,6.0,6.0,13,0.00,,,0.00,meteohub,2013-07-03 21:44:00,
2013-07-03 16:49:00,104.5,43.9,29.98,NW,315,4.0,4.0,13,0.00,,,0.00,meteohub,2013-07-03 21:49:00,
2013-07-03 16:54:00,103.3,44.8,29.98,SW,225,3.0,6.0,14,0.00,,,0.00,meteohub,2013-07-03 21:54:00,
2013-07-03 16:59:00,99.9,36.0,29.98,West,270,2.0,6.0,11,0.00,,,0.00,meteohub,2013-07-03 21:59:00,
2013-07-03 17:05:00,98.1,38.8,29.98,North,0,1.0,5.0,13,0.00,,,0.00,meteohub,2013-07-03 22:05:00,
2013-07-03 17:10:00,97.0,39.9,29.98,South,180,1.0,4.0,14,0.00,,,0.00,meteohub,2013-07-03 22:10:00,
2013-07-03 17:15:00,95.9,42.4,29.98,SE,135,1.0,3.0,16,0.00,,,0.00,meteohub,2013-07-03 22:15:00,
2013-07-03 17:20:00,95.5,49.5,29.97,NE,45,3.0,3.0,21,0.00,,,0.00,meteohub,2013-07-03 22:20:00,
2013-07-03 17:25:00,97.2,43.5,29.97,West,270,2.0,4.0,16,0.00,,,0.00,meteohub,2013-07-03 22:25:00,
2013-07-03 17:30:00,100.8,44.6,29.97,West,270,3.0,4.0,15,0.00,,,0.00,meteohub,2013-07-03 22:30:00,
2013-07-03 17:35:00,103.5,45.0,29.97,NW,315,3.0,4.0,14,0.00,,,0.00,meteohub,2013-07-03 22:35:00,
2013-07-03 17:41:00,104.0,43.5,29.97,WSW,248,4.0,4.0,13,0.00,,,0.00,meteohub,2013-07-03 22:41:00,
2013-07-03 17:46:00,104.0,43.5,29.97,South,180,2.0,4.0,13,0.00,,,0.00,meteohub,2013-07-03 22:46:00,
2013-07-03 17:51:00,104.2,43.5,29.96,SW,225,2.0,4.0,13,0.00,,,0.00,meteohub,2013-07-03 22:51:00,
2013-07-03 17:56:00,104.5,43.9,29.96,West,270,2.0,4.0,13,0.00,,,0.00,meteohub,2013-07-03 22:56:00,
2013-07-03 18:01:00,101.5,45.3,29.96,East,90,2.0,3.0,15,0.00,,,0.00,meteohub,2013-07-03 23:01:00,
2013-07-03 18:06:00,100.9,44.8,29.96,NW,315,4.0,4.0,15,0.00,,,0.00,meteohub,2013-07-03 23:06:00,
2013-07-03 18:12:00,102.2,44.1,29.96,NE,45,1.0,4.0,14,0.00,,,0.00,meteohub,2013-07-03 23:12:00,
2013-07-03 18:17:00,103.6,45.1,29.96,East,90,2.0,4.0,14,0.00,,,0.00,meteohub,2013-07-03 23:17:00,
2013-07-03 18:22:00,104.2,43.5,29.96,NE,45,2.0,4.0,13,0.00,,,0.00,meteohub,2013-07-03 23:22:00,
2013-07-03 18:27:00,103.8,45.3,29.95,East,90,1.0,4.0,14,0.00,,,0.00,meteohub,2013-07-03 23:27:00,
2013-07-03 18:32:00,104.2,43.5,29.96,NE,45,2.0,4.0,13,0.00,,,0.00,meteohub,2013-07-03 23:32:00,
2013-07-03 18:37:00,104.2,43.5,29.95,NE,45,3.0,4.0,13,0.00,,,0.00,meteohub,2013-07-03 23:37:00,
2013-07-03 18:43:00,102.9,44.6,29.95,NE,45,2.0,4.0,14,0.00,,,0.00,meteohub,2013-07-03 23:43:00,
2013-07-03 18:48:00,102.0,45.7,29.95,NE,45,2.0,6.0,15,0.00,,,0.00,meteohub,2013-07-03 23:48:00,
2013-07-03 18:53:00,102.4,44.1,29.95,NW,315,4.0,6.0,14,0.00,,,0.00,meteohub,2013-07-03 23:53:00,
2013-07-03 18:58:00,101.8,45.5,29.95,North,0,5.0,6.0,15,0.00,,,0.00,meteohub,2013-07-03 23:58:00,
2013-07-03 19:03:00,100.8,44.6,29.94,North,0,4.0,5.0,15,0.00,,,0.00,meteohub,2013-07-04 00:03:00,
2013-07-03 19:08:00,100.8,44.6,29.95,East,90,2.0,5.0,15,0.00,,,0.00,meteohub,2013-07-04 00:08:00,
2013-07-03 19:13:00,100.8,44.6,29.95,SE,135,3.0,5.0,15,0.00,,,0.00,meteohub,2013-07-04 00:13:00,
2013-07-03 19:19:00,99.3,43.5,29.95,ENE,68,2.0,5.0,15,0.00,,,0.00,meteohub,2013-07-04 00:19:00,
2013-07-03 19:24:00,98.6,43.0,29.95,NNE,23,2.0,3.0,15,0.00,,,0.00,meteohub,2013-07-04 00:24:00,
2013-07-03 19:29:00,97.0,43.3,29.95,SE,135,3.0,4.0,16,0.00,,,0.00,meteohub,2013-07-04 00:29:00,
2013-07-03 19:34:00,95.9,46.9,29.96,North,0,1.0,4.0,19,0.00,,,0.00,meteohub,2013-07-04 00:34:00,
2013-07-03 19:39:00,94.3,49.6,29.95,NE,45,2.0,4.0,22,0.00,,,0.00,meteohub,2013-07-04 00:39:00,
2013-07-03 19:45:00,93.2,49.8,29.96,NE,45,3.0,6.0,23,0.00,,,0.00,meteohub,2013-07-04 00:45:00,
2013-07-03 19:50:00,92.5,51.6,29.96,East,90,3.0,6.0,25,0.00,,,0.00,meteohub,2013-07-04 00:50:00,
2013-07-03 19:55:00,91.8,50.9,29.95,North,0,4.0,6.0,25,0.00,,,0.00,meteohub,2013-07-04 00:55:00,
2013-07-03 20:00:00,90.9,46.8,29.95,North,0,3.0,4.0,22,0.00,,,0.00,meteohub,2013-07-04 01:00:00,
2013-07-03 20:05:00,90.1,46.2,29.96,East,90,2.0,4.0,22,0.00,,,0.00,meteohub,2013-07-04 01:05:00,
2013-07-03 20:10:00,89.2,46.6,29.96,NE,45,2.0,3.0,23,0.00,,,0.00,meteohub,2013-07-04 01:10:00,
2013-07-03 20:15:00,88.7,46.2,29.96,West,270,2.0,3.0,23,0.00,,,0.00,meteohub,2013-07-04 01:15:00,
2013-07-03 20:20:00,88.0,46.6,29.96,NW,315,1.0,3.0,24,0.00,,,0.00,meteohub,2013-07-04 01:20:00,
2013-07-03 20:25:00,87.4,47.3,29.96,North,0,3.0,3.0,25,0.00,,,0.00,meteohub,2013-07-04 01:25:00,
2013-07-03 20:31:00,86.9,46.8,29.96,SE,135,2.0,4.0,25,0.00,,,0.00,meteohub,2013-07-04 01:31:00,
2013-07-03 20:36:00,86.2,46.2,29.96,North,0,1.0,4.0,25,0.00,,,0.00,meteohub,2013-07-04 01:36:00,
2013-07-03 20:41:00,85.3,47.5,29.96,East,90,0.0,3.0,27,0.00,,,0.00,meteohub,2013-07-04 01:41:00,
2013-07-03 20:47:00,84.2,47.5,29.96,East,90,0.0,2.0,28,0.00,,,0.00,meteohub,2013-07-04 01:47:00,
2013-07-03 20:52:00,82.8,47.3,29.96,East,90,0.0,2.0,29,0.00,,,0.00,meteohub,2013-07-04 01:52:00,
2013-07-03 20:57:00,81.9,44.6,29.96,East,90,0.0,0.0,27,0.00,,,0.00,meteohub,2013-07-04 01:57:00,
2013-07-03 21:02:00,80.6,45.3,29.96,East,90,0.0,0.0,29,0.00,,,0.00,meteohub,2013-07-04 02:02:00,
2013-07-03 21:07:00,79.7,47.3,29.96,East,90,0.0,0.0,32,0.00,,,0.00,meteohub,2013-07-04 02:07:00,
2013-07-03 21:12:00,78.8,46.4,29.96,East,90,0.0,0.0,32,0.00,,,0.00,meteohub,2013-07-04 02:12:00,
2013-07-03 21:17:00,77.9,48.0,29.96,East,90,1.0,1.0,35,0.00,,,0.00,meteohub,2013-07-04 02:17:00,
2013-07-03 21:22:00,77.0,47.3,29.96,East,90,0.0,1.0,35,0.00,,,0.00,meteohub,2013-07-04 02:22:00,
2013-07-03 21:27:00,76.3,48.7,29.97,NE,45,1.0,1.0,38,0.00,,,0.00,meteohub,2013-07-04 02:27:00,
2013-07-03 21:33:00,75.9,48.6,29.97,NE,45,0.0,1.0,38,0.00,,,0.00,meteohub,2013-07-04 02:33:00,
2013-07-03 21:38:00,75.0,49.1,29.97,NE,45,0.0,1.0,40,0.00,,,0.00,meteohub,2013-07-04 02:38:00,
2013-07-03 21:43:00,74.7,49.5,29.97,NE,45,0.0,1.0,41,0.00,,,0.00,meteohub,2013-07-04 02:43:00,
2013-07-03 21:48:00,74.5,49.3,29.97,NE,45,1.0,0.0,41,0.00,,,0.00,meteohub,2013-07-04 02:48:00,
2013-07-03 21:54:00,74.3,49.1,29.97,NE,45,0.0,1.0,41,0.00,,,0.00,meteohub,2013-07-04 02:54:00,
2013-07-03 21:59:00,74.1,48.9,29.97,NE,45,0.0,1.0,41,0.00,,,0.00,meteohub,2013-07-04 02:59:00,
2013-07-03 22:04:00,74.1,49.6,29.98,NE,45,0.0,1.0,42,0.00,,,0.00,meteohub,2013-07-04 03:04:00,
2013-07-03 22:09:00,73.9,49.5,29.98,NE,45,0.0,0.0,42,0.00,,,0.00,meteohub,2013-07-04 03:09:00,
2013-07-03 22:14:00,73.6,50.4,29.97,NE,45,0.0,0.0,44,0.00,,,0.00,meteohub,2013-07-04 03:14:00,
2013-07-03 22:19:00,73.2,49.5,29.98,NE,45,2.0,0.0,43,0.00,,,0.00,meteohub,2013-07-04 03:19:00,
2013-07-03 22:25:00,72.9,49.1,29.98,NE,45,0.0,0.0,43,0.00,,,0.00,meteohub,2013-07-04 03:25:00,
2013-07-03 22:30:00,72.5,48.0,29.98,West,270,1.0,2.0,42,0.00,,,0.00,meteohub,2013-07-04 03:30:00,
2013-07-03 22:35:00,72.3,48.6,29.98,West,270,0.0,2.0,43,0.00,,,0.00,meteohub,2013-07-04 03:35:00,
2013-07-03 22:41:00,72.0,48.2,29.98,West,270,0.0,1.0,43,0.00,,,0.00,meteohub,2013-07-04 03:41:00,
2013-07-03 22:46:00,71.6,48.6,29.99,East,90,0.0,1.0,44,0.00,,,0.00,meteohub,2013-07-04 03:46:00,
2013-07-03 22:51:00,71.1,49.3,29.99,East,90,0.0,1.0,46,0.00,,,0.00,meteohub,2013-07-04 03:51:00,
2013-07-03 22:56:00,70.7,49.5,29.99,NE,45,1.0,1.0,47,0.00,,,0.00,meteohub,2013-07-04 03:56:00,
2013-07-03 23:01:00,70.3,48.6,29.99,NE,45,0.0,2.0,46,0.00,,,0.00,meteohub,2013-07-04 04:01:00,
2013-07-03 23:02:00,70.3,48.6,29.99,NE,45,0.0,2.0,46,0.00,,,0.00,meteohub,2013-07-04 04:02:00,
2013-07-03 23:07:00,70.3,48.6,29.99,NE,45,0.0,2.0,46,0.00,,,0.00,meteohub,2013-07-04 04:07:00,
2013-07-03 23:12:00,69.4,50.0,29.99,NE,45,0.0,2.0,50,0.00,,,0.00,meteohub,2013-07-04 04:12:00,
2013-07-03 23:17:00,69.3,49.3,29.99,NE,45,0.0,2.0,49,0.00,,,0.00,meteohub,2013-07-04 04:17:00,
2013-07-03 23:23:00,69.1,49.1,29.99,NE,45,0.0,2.0,49,0.00,,,0.00,meteohub,2013-07-04 04:23:00,
2013-07-03 23:28:00,68.9,49.5,29.99,NE,45,0.0,2.0,50,0.00,,,0.00,meteohub,2013-07-04 04:28:00,
2013-07-03 23:33:00,68.5,49.1,30.00,NE,45,1.0,0.0,50,0.00,,,0.00,meteohub,2013-07-04 04:33:00,
2013-07-03 23:38:00,68.4,50.0,29.99,East,90,1.0,1.0,52,0.00,,,0.00,meteohub,2013-07-04 04:38:00,
2013-07-03 23:43:00,68.4,49.5,29.99,East,90,0.0,1.0,51,0.00,,,0.00,meteohub,2013-07-04 04:43:00,
2013-07-03 23:48:00,68.0,49.6,29.99,East,90,0.0,1.0,52,0.00,,,0.00,meteohub,2013-07-04 04:48:00,
2013-07-03 23:53:00,67.8,50.0,30.00,East,90,0.0,1.0,53,0.00,,,0.00,meteohub,2013-07-04 04:53:00,
2013-07-03 23:58:00,67.5,50.2,30.00,East,90,0.0,1.0,54,0.00,,,0.00,meteohub,2013-07-04 04:58:00,